Time,TemperatureF,DewpointF,PressureIn,WindDirection,WindDirectionDegrees,WindSpeedMPH,WindSpeedGustMPH,Humidity,HourlyPrecipIn,Conditions,Clouds,dailyrainin,SoftwareType,DateUTC
2013-04-24 00:09:00,60.3,49.7,29.71,SSW,202,5.3,-999.0,68,-99.99,,,0.00,Acu-Link.com,2013-04-24 04:09:00,
2013-04-24 00:24:00,60.6,49.2,29.71,SW,225,6.8,-999.0,66,-99.99,,,0.00,Acu-Link.com,2013-04-24 04:24:00,
2013-04-24 00:39:00,61.2,48.9,29.71,ESE,112,5.3,-999.0,64,-99.99,,,0.00,Acu-Link.com,2013-04-24 04:39:00,
2013-04-24 00:55:00,61.3,48.6,29.71,SW,225,6.8,-999.0,63,-99.99,,,0.00,Acu-Link.com,2013-04-24 04:55:00,
2013-04-24 01:10:00,61.3,48.6,29.69,SSW,202,8.3,-999.0,63,-99.99,,,0.00,Acu-Link.com,2013-04-24 05:10:00,
2013-04-24 01:25:00,61.2,48.9,29.69,South,180,4.2,-999.0,64,-99.99,,,0.00,Acu-Link.com,2013-04-24 05:25:00,
2013-04-24 01:40:00,60.8,48.5,29.69,ESE,112,8.9,-999.0,64,-99.99,,,0.00,Acu-Link.com,2013-04-24 05:40:00,
2013-04-24 01:55:00,60.6,49.2,29.68,SSW,202,5.3,-999.0,66,-99.99,,,0.00,Acu-Link.com,2013-04-24 05:55:00,
2013-04-24 02:11:00,61.0,49.6,29.68,SW,225,6.3,-999.0,66,-99.99,,,0.00,Acu-Link.com,2013-04-24 06:11:00,
2013-04-24 02:26:00,61.2,49.7,29.67,SSW,202,6.3,-999.0,66,-99.99,,,0.00,Acu-Link.com,2013-04-24 06:26:00,
2013-04-24 02:41:00,61.7,50.2,29.66,South,180,4.2,-999.0,66,-99.99,,,0.00,Acu-Link.com,2013-04-24 06:41:00,
2013-04-24 02:56:00,62.2,50.7,29.66,South,180,6.3,-999.0,66,-99.99,,,0.00,Acu-Link.com,2013-04-24 06:56:00,
2013-04-24 03:11:00,62.1,50.6,29.66,SSE,157,5.3,-999.0,66,-99.99,,,0.00,Acu-Link.com,2013-04-24 07:11:00,
2013-04-24 03:26:00,62.1,51.0,29.65,SSE,157,5.8,-999.0,67,-99.99,,,0.00,Acu-Link.com,2013-04-24 07:26:00,
2013-04-24 03:41:00,61.5,50.4,29.65,ESE,112,4.2,-999.0,67,-99.99,,,0.00,Acu-Link.com,2013-04-24 07:41:00,
2013-04-24 03:57:00,60.1,50.3,29.65,South,180,3.7,-999.0,70,-99.99,,,0.00,Acu-Link.com,2013-04-24 07:57:00,
2013-04-24 04:12:00,59.2,49.8,29.64,South,180,5.8,-999.0,71,-99.99,,,0.00,Acu-Link.com,2013-04-24 08:12:00,
2013-04-24 04:27:00,59.7,50.3,29.64,WSW,247,3.2,-999.0,71,-99.99,,,0.00,Acu-Link.com,2013-04-24 08:27:00,
2013-04-24 04:43:00,59.7,50.3,29.64,ESE,112,5.3,-999.0,71,-99.99,,,0.00,Acu-Link.com,2013-04-24 08:43:00,
2013-04-24 04:58:00,60.1,50.3,29.64,SSE,157,4.2,-999.0,70,-99.99,,,0.00,Acu-Link.com,2013-04-24 08:58:00,
2013-04-24 05:13:00,59.9,50.1,29.64,South,180,5.8,-999.0,70,-99.99,,,0.00,Acu-Link.com,2013-04-24 09:13:00,
2013-04-24 05:28:00,59.9,50.1,29.64,SSE,157,4.7,-999.0,70,-99.99,,,0.00,Acu-Link.com,2013-04-24 09:28:00,
2013-04-24 05:44:00,59.9,50.1,29.64,ESE,112,8.9,-999.0,70,-99.99,,,0.00,Acu-Link.com,2013-04-24 09:44:00,
2013-04-24 05:59:00,59.4,50.0,29.63,SE,135,7.3,-999.0,71,-99.99,,,0.00,Acu-Link.com,2013-04-24 09:59:00,
2013-04-24 06:14:00,59.2,49.8,29.63,SSE,157,4.7,-999.0,71,-99.99,,,0.00,Acu-Link.com,2013-04-24 10:14:00,
2013-04-24 06:29:00,59.0,50.0,29.62,SSE,157,5.3,-999.0,72,-99.99,,,0.00,Acu-Link.com,2013-04-24 10:29:00,
2013-04-24 06:44:00,59.0,50.0,29.62,South,180,4.7,-999.0,72,-99.99,,,0.00,Acu-Link.com,2013-04-24 10:44:00,
2013-04-24 06:59:00,59.7,50.3,29.62,SSE,157,8.9,-999.0,71,-99.99,,,0.00,Acu-Link.com,2013-04-24 10:59:00,
2013-04-24 07:14:00,60.1,50.7,29.64,SSW,202,8.3,-999.0,71,-99.99,,,0.00,Acu-Link.com,2013-04-24 11:14:00,
2013-04-24 07:29:00,58.6,52.1,29.65,West,270,3.2,-999.0,79,-99.99,,,0.00,Acu-Link.com,2013-04-24 11:29:00,
2013-04-24 07:45:00,56.8,53.0,29.64,SSW,202,2.2,-999.0,87,-99.99,,,0.01,Acu-Link.com,2013-04-24 11:45:00,
2013-04-24 08:00:00,56.7,53.5,29.63,SSW,202,2.2,-999.0,89,-99.99,,,0.02,Acu-Link.com,2013-04-24 12:00:00,
2013-04-24 08:15:00,57.0,53.8,29.63,SSW,202,2.2,-999.0,89,-99.99,,,0.02,Acu-Link.com,2013-04-24 12:15:00,
2013-04-24 08:31:00,57.6,54.1,29.63,South,180,2.7,-999.0,88,-99.99,,,0.02,Acu-Link.com,2013-04-24 12:31:00,
2013-04-24 08:46:00,57.6,54.1,29.60,SE,135,3.7,-999.0,88,-99.99,,,0.03,Acu-Link.com,2013-04-24 12:46:00,
2013-04-24 09:01:00,57.9,54.4,29.62,SSW,202,3.7,-999.0,88,-99.99,,,0.03,Acu-Link.com,2013-04-24 13:01:00,
2013-04-24 09:17:00,58.5,54.3,29.61,SW,225,2.7,-999.0,86,-99.99,,,0.03,Acu-Link.com,2013-04-24 13:17:00,
2013-04-24 09:32:00,57.7,55.1,29.62,West,270,2.7,-999.0,91,-99.99,,,0.06,Acu-Link.com,2013-04-24 13:32:00,
2013-04-24 09:47:00,57.4,55.4,29.61,West,270,2.2,-999.0,93,-99.99,,,0.07,Acu-Link.com,2013-04-24 13:47:00,
2013-04-24 10:03:00,57.2,55.8,29.61,ESE,112,1.1,-999.0,95,-99.99,,,0.10,Acu-Link.com,2013-04-24 14:03:00,
2013-04-24 10:18:00,57.0,56.2,29.61,WSW,247,2.2,-999.0,97,-99.99,,,0.14,Acu-Link.com,2013-04-24 14:18:00,
2013-04-24 10:33:00,57.0,56.2,29.62,West,270,0.0,-999.0,97,-99.99,,,0.17,Acu-Link.com,2013-04-24 14:33:00,
2013-04-24 10:48:00,57.0,56.7,29.63,WSW,247,0.0,-999.0,99,-99.99,,,0.26,Acu-Link.com,2013-04-24 14:48:00,
2013-04-24 11:04:00,56.8,56.5,29.65,West,270,2.7,-999.0,99,-99.99,,,0.37,Acu-Link.com,2013-04-24 15:04:00,
2013-04-24 11:19:00,54.3,54.0,29.68,NNW,337,5.8,-999.0,99,-99.99,,,0.47,Acu-Link.com,2013-04-24 15:19:00,
2013-04-24 11:34:00,52.5,52.2,29.69,South,180,3.7,-999.0,99,-99.99,,,0.73,Acu-Link.com,2013-04-24 15:34:00,
2013-04-24 11:49:00,53.1,52.8,29.67,West,270,2.7,-999.0,99,-99.99,,,0.84,Acu-Link.com,2013-04-24 15:49:00,
2013-04-24 12:04:00,54.0,53.7,29.69,SW,225,4.7,-999.0,99,-99.99,,,0.88,Acu-Link.com,2013-04-24 16:04:00,
2013-04-24 12:20:00,55.2,54.9,29.67,WNW,292,7.8,-999.0,99,-99.99,,,0.95,Acu-Link.com,2013-04-24 16:20:00,
2013-04-24 12:35:00,55.4,55.1,29.67,WSW,247,4.7,-999.0,99,-99.99,,,1.02,Acu-Link.com,2013-04-24 16:35:00,
2013-04-24 12:50:00,55.9,55.6,29.69,WSW,247,6.8,-999.0,99,-99.99,,,1.06,Acu-Link.com,2013-04-24 16:50:00,
2013-04-24 13:05:00,50.0,49.5,29.72,NNW,337,5.8,-999.0,98,-99.99,,,1.08,Acu-Link.com,2013-04-24 17:05:00,
2013-04-24 13:20:00,46.4,46.1,29.74,SW,225,7.3,-999.0,99,-99.99,,,1.09,Acu-Link.com,2013-04-24 17:20:00,
2013-04-24 13:36:00,46.0,45.7,29.75,WSW,247,4.2,-999.0,99,-99.99,,,1.09,Acu-Link.com,2013-04-24 17:36:00,
2013-04-24 13:51:00,46.2,45.9,29.76,WSW,247,11.4,-999.0,99,-99.99,,,1.09,Acu-Link.com,2013-04-24 17:51:00,
2013-04-24 14:06:00,46.4,46.1,29.76,West,270,4.7,-999.0,99,-99.99,,,1.10,Acu-Link.com,2013-04-24 18:06:00,
2013-04-24 14:21:00,46.2,45.9,29.77,West,270,5.3,-999.0,99,-99.99,,,1.10,Acu-Link.com,2013-04-24 18:21:00,
2013-04-24 14:37:00,46.2,45.7,29.78,West,270,5.8,-999.0,98,-99.99,,,1.10,Acu-Link.com,2013-04-24 18:37:00,
2013-04-24 14:52:00,45.9,44.3,29.79,WSW,247,7.3,-999.0,94,-99.99,,,1.10,Acu-Link.com,2013-04-24 18:52:00,
2013-04-24 15:07:00,45.7,44.1,29.80,SW,225,5.3,-999.0,94,-99.99,,,1.10,Acu-Link.com,2013-04-24 19:07:00,
2013-04-24 15:22:00,45.1,43.8,29.81,SW,225,7.3,-999.0,95,-99.99,,,1.10,Acu-Link.com,2013-04-24 19:22:00,
2013-04-24 15:37:00,44.6,43.0,29.82,West,270,6.8,-999.0,94,-99.99,,,1.10,Acu-Link.com,2013-04-24 19:37:00,
2013-04-24 15:52:00,44.6,42.7,29.84,SSW,202,14.0,-999.0,93,-99.99,,,1.10,Acu-Link.com,2013-04-24 19:52:00,
2013-04-24 16:07:00,44.1,42.2,29.85,West,270,6.8,-999.0,93,-99.99,,,1.10,Acu-Link.com,2013-04-24 20:07:00,
2013-04-24 16:22:00,43.0,41.1,29.86,West,270,5.8,-999.0,93,-99.99,,,1.10,Acu-Link.com,2013-04-24 20:22:00,
2013-04-24 16:37:00,43.2,40.8,29.88,NW,315,5.8,-999.0,91,-99.99,,,1.10,Acu-Link.com,2013-04-24 20:37:00,
2013-04-24 16:53:00,44.2,41.2,29.88,West,270,4.7,-999.0,89,-99.99,,,1.10,Acu-Link.com,2013-04-24 20:53:00,
2013-04-24 17:08:00,44.1,40.5,29.88,North,0,5.8,-999.0,87,-99.99,,,1.10,Acu-Link.com,2013-04-24 21:08:00,
2013-04-24 17:23:00,44.4,40.2,29.88,West,270,6.3,-999.0,85,-99.99,,,1.10,Acu-Link.com,2013-04-24 21:23:00,
2013-04-24 17:38:00,44.2,40.9,29.90,NNE,22,2.7,-999.0,88,-99.99,,,1.10,Acu-Link.com,2013-04-24 21:38:00,
2013-04-24 17:53:00,44.1,40.5,29.90,WNW,292,3.2,-999.0,87,-99.99,,,1.10,Acu-Link.com,2013-04-24 21:53:00,
2013-04-24 18:08:00,44.6,40.7,29.91,West,270,1.7,-999.0,86,-99.99,,,1.10,Acu-Link.com,2013-04-24 22:08:00,
2013-04-24 18:23:00,44.8,40.9,29.91,SW,225,3.7,-999.0,86,-99.99,,,1.10,Acu-Link.com,2013-04-24 22:23:00,
2013-04-24 18:38:00,45.1,40.6,29.92,WNW,292,5.3,-999.0,84,-99.99,,,1.10,Acu-Link.com,2013-04-24 22:38:00,
2013-04-24 18:54:00,45.5,41.0,29.93,West,270,4.2,-999.0,84,-99.99,,,1.10,Acu-Link.com,2013-04-24 22:54:00,
2013-04-24 19:09:00,45.3,40.1,29.94,West,270,5.8,-999.0,82,-99.99,,,1.10,Acu-Link.com,2013-04-24 23:09:00,
2013-04-24 19:24:00,44.8,39.6,29.94,WSW,247,5.3,-999.0,82,-99.99,,,1.10,Acu-Link.com,2013-04-24 23:24:00,
2013-04-24 19:39:00,44.6,40.1,29.95,West,270,2.7,-999.0,84,-99.99,,,1.10,Acu-Link.com,2013-04-24 23:39:00,
2013-04-24 19:55:00,44.6,39.8,29.95,West,270,4.2,-999.0,83,-99.99,,,1.10,Acu-Link.com,2013-04-24 23:55:00,
2013-04-24 20:10:00,44.6,40.4,29.96,SSW,202,2.2,-999.0,85,-99.99,,,1.10,Acu-Link.com,2013-04-25 00:10:00,
2013-04-24 20:25:00,44.4,40.2,29.96,West,270,2.7,-999.0,85,-99.99,,,1.10,Acu-Link.com,2013-04-25 00:25:00,
2013-04-24 20:40:00,44.2,40.0,29.96,WNW,292,5.8,-999.0,85,-99.99,,,1.10,Acu-Link.com,2013-04-25 00:40:00,
2013-04-24 20:56:00,44.2,40.3,29.98,WNW,292,1.7,-999.0,86,-99.99,,,1.10,Acu-Link.com,2013-04-25 00:56:00,
2013-04-24 21:11:00,44.1,40.2,29.98,West,270,2.2,-999.0,86,-99.99,,,1.10,Acu-Link.com,2013-04-25 01:11:00,
2013-04-24 21:26:00,43.9,39.1,29.99,West,270,2.7,-999.0,83,-99.99,,,1.10,Acu-Link.com,2013-04-25 01:26:00,
2013-04-24 21:41:00,43.9,38.8,30.00,WNW,292,2.7,-999.0,82,-99.99,,,1.10,Acu-Link.com,2013-04-25 01:41:00,
2013-04-24 21:57:00,43.9,38.1,30.01,SSW,202,2.2,-999.0,80,-99.99,,,1.10,Acu-Link.com,2013-04-25 01:57:00,
2013-04-24 22:12:00,43.9,38.5,30.01,West,270,4.2,-999.0,81,-99.99,,,1.10,Acu-Link.com,2013-04-25 02:12:00,
2013-04-24 22:27:00,43.7,38.3,30.02,WNW,292,0.0,-999.0,81,-99.99,,,1.10,Acu-Link.com,2013-04-25 02:27:00,
2013-04-24 22:42:00,43.7,37.9,30.02,NW,315,2.2,-999.0,80,-99.99,,,1.10,Acu-Link.com,2013-04-25 02:42:00,
2013-04-24 22:57:00,43.7,37.6,30.02,SW,225,3.2,-999.0,79,-99.99,,,1.10,Acu-Link.com,2013-04-25 02:57:00,
2013-04-24 23:13:00,43.5,37.4,30.02,NW,315,4.2,-999.0,79,-99.99,,,1.10,Acu-Link.com,2013-04-25 03:13:00,
2013-04-24 23:28:00,43.5,37.4,30.03,West,270,2.7,-999.0,79,-99.99,,,1.10,Acu-Link.com,2013-04-25 03:28:00,
2013-04-24 23:43:00,43.0,36.9,30.03,West,270,3.2,-999.0,79,-99.99,,,1.10,Acu-Link.com,2013-04-25 03:43:00,
2013-04-24 23:58:00,42.1,36.7,30.04,WSW,247,2.7,-999.0,81,-99.99,,,1.10,Acu-Link.com,2013-04-25 03:58:00,